Location: St Paul
(33.9360°N, 83.4200°W)
Time: 17:43:16
(UTC-04:00)

Cosmos 864 Rocket - Pass Details

Date: 06 October 2017
Orbit: 953 x 991 km, 82.9° (Epoch: 20 October)

Event Time Altitude Azimuth Distance (km) Brightness Sun altitude
Rises 20:46:06 0° 183° (S) 3,678 7.5 -20.6°
Reaches altitude 10° 20:48:36 10° 183° (S) 2,736 6.8 -21.1°
Maximum altitude 20:54:53 87° 95° (E) 997 4.4 -22.4°
Drops below altitude 10° 21:01:15 10° 7° (N) 2,758 6.9 -23.7°
Sets 21:03:46 0° 7° (N) 3,709 7.6 -24.2°
